Location: ???????
(55.4362°N, 38.1183°E)
Time: 18:21:07
(UTC+00:00)

SL-16 R/B - Pass Details

Date: 17 June 2021
Orbit: 842 x 847 km, 71.0° (Epoch: 29 July)

Event Time Altitude Azimuth Distance (km) Brightness Sun altitude
Exits shadow 21:24:25 15° 171° (S) 2,154 3.7 -11.2°
Maximum altitude 21:28:40 38° 110° (ESE) 1,274 3.0 -11.2°
Drops below altitude 10° 21:33:51 10° 44° (NE) 2,475 5.4 -11.2°
Sets 21:36:27 0° 37° (NE) 3,414 6.3 -11.1°
